Total_Precipitation_Accumulation
0.86 1.18 1.25 1.06 1.03 1.08 1.00 1.02 1.08 1.03 0.90 1.01 1.02 0.97 1.04 0.99 0.88 0.77 0.74 0.77 0.69 0.60 0.59 0.53 0.49 0.56 0.59 0.56 0.56 0.65 0.75 0.81 0.83 0.94 1.05 1.16 1.27 1.44 1.67 1.73 1.77 1.90 1.99 2.02
0.91 0.97 0.80 0.82 0.84 0.91 0.92 0.94 0.98 0.89 0.79 0.84 0.94 0.97 0.97 0.92 0.86 0.77 0.70 0.61 0.63 0.55 0.50 0.44 0.43 0.44 0.47 0.49 0.52 0.59 0.72 0.84 0.89 0.97 1.10 1.27 1.53 1.59 1.73 1.97 1.97 1.96 1.99 2.01
0.78 0.68 0.61 0.72 0.80 0.86 0.89 0.85 0.80 0.83 0.81 0.82 0.92 1.13 1.03 0.95 0.80 0.71 0.64 0.54 0.48 0.47 0.43 0.36 0.37 0.40 0.42 0.46 0.57 0.66 0.79 0.98 1.18 1.29 1.52 1.86 2.13 2.17 2.07 2.09 2.18 2.19 2.19 2.21
0.82 0.59 0.61 0.72 0.74 0.76 0.92 0.65 0.58 0.69 0.89 1.05 0.88 1.27 1.02 0.90 0.83 0.65 0.58 0.56 0.49 0.51 0.53 0.42 0.38 0.40 0.40 0.46 0.63 0.86 1.11 1.42 1.65 1.78 1.95 2.22 2.37 2.42 2.29 2.25 2.28 2.34 2.26 2.19
0.81 0.62 0.65 0.72 0.66 0.62 0.75 0.60 0.60 0.70 0.85 0.91 0.75 0.95 0.90 0.73 0.81 0.71 0.64 0.61 0.56 0.57 0.56 0.56 0.53 0.57 0.59 0.70 0.94 1.32 1.62 1.88 2.03 2.07 2.14 2.38 2.52 2.68 2.68 2.52 2.37 2.32 2.32 2.30
0.69 0.61 0.66 0.70 0.62 0.56 0.63 0.71 0.77 0.80 0.94 1.08 0.70 0.75 0.92 0.75 0.70 0.71 0.70 0.64 0.60 0.59 0.62 0.72 0.85 0.97 1.04 1.15 1.38 1.63 1.80 1.98 2.03 2.01 2.04 2.17 2.38 2.56 2.55 2.52 2.46 2.38 2.31 2.23
0.72 0.66 0.61 0.57 0.67 0.67 0.72 0.97 1.28 1.30 1.26 1.03 0.59 0.73 0.79 0.57 0.51 0.57 0.64 0.66 0.64 0.60 0.70 0.93 1.11 1.26 1.35 1.45 1.58 1.65 1.66 1.75 1.81 1.84 1.87 1.90 1.97 2.05 2.08 2.15 2.08 1.97 1.86 1.80
0.62 0.65 0.53 0.47 0.53 0.64 0.69 0.78 1.18 1.32 1.14 0.91 0.68 0.90 0.79 0.58 0.56 0.49 0.54 0.64 0.76 0.88 0.97 1.10 1.23 1.36 1.41 1.54 1.62 1.58 1.53 1.53 1.49 1.48 1.57 1.62 1.64 1.73 1.75 1.68 1.62 1.53 1.46 1.45
0.49 0.52 0.41 0.39 0.39 0.49 0.61 0.63 0.71 0.93 0.87 0.89 0.79 0.89 0.79 0.58 0.56 0.51 0.53 0.64 0.79 0.99 1.23 1.41 1.42 1.34 1.30 1.37 1.47 1.47 1.41 1.34 1.24 1.20 1.28 1.37 1.50 1.51 1.49 1.42 1.30 1.29 1.19 1.23
0.42 0.51 0.46 0.42 0.42 0.46 0.49 0.57 0.75 1.07 1.23 1.19 0.92 0.99 0.96 0.73 0.66 0.62 0.66 0.76 0.92 1.10 1.33 1.60 1.72 1.62 1.38 1.22 1.25 1.23 1.25 1.31 1.28 1.24 1.25 1.26 1.24 1.18 1.16 1.19 1.07 1.04 1.10 1.13
0.35 0.46 0.46 0.45 0.46 0.49 0.50 0.60 0.76 0.99 1.00 1.28 1.50 1.41 1.05 0.90 0.82 0.80 0.85 0.93 1.00 1.26 1.55 1.70 1.74 1.60 1.46 1.18 1.11 1.11 1.14 1.23 1.29 1.23 1.26 1.23 1.14 1.05 1.00 0.94 0.87 0.87 0.92 0.97
0.35 0.47 0.47 0.40 0.38 0.38 0.47 0.58 0.76 1.17 1.14 1.07 1.31 1.31 0.84 0.86 0.96 0.89 0.96 1.05 1.09 1.19 1.25 1.27 1.38 1.38 1.30 1.18 1.11 1.19 1.25 1.29 1.27 1.22 1.21 1.16 1.09 1.03 1.05 0.94 0.82 0.86 0.91 0.91
0.38 0.50 0.59 0.55 0.51 0.45 0.57 0.65 0.61 0.83 1.04 1.05 1.24 1.21 0.74 0.72 0.86 0.91 1.01 1.05 1.04 1.04 0.99 0.94 1.05 1.20 1.14 1.08 1.12 1.24 1.41 1.44 1.39 1.26 1.18 1.17 1.13 1.12 1.18 1.03 0.91 0.90 0.98 1.07
0.32 0.41 0.46 0.55 0.52 0.54 0.79 0.88 0.68 0.81 1.05 0.88 0.83 0.90 0.72 0.68 0.81 0.88 0.96 1.00 0.96 0.90 0.85 0.82 0.78 0.82 0.85 0.89 0.91 1.03 1.33 1.58 1.59 1.46 1.33 1.27 1.27 1.30 1.32 1.16 1.05 0.95 0.94 0.98
0.30 0.34 0.27 0.26 0.30 0.35 0.58 0.63 0.54 0.58 0.57 0.64 0.57 0.61 0.70 0.79 0.86 0.85 0.84 0.78 0.71 0.70 0.67 0.63 0.59 0.58 0.59 0.64 0.73 0.87 1.20 1.46 1.49 1.47 1.32 1.22 1.21 1.21 1.20 1.20 1.20 1.09 0.96 0.89
0.29 0.31 0.24 0.24 0.24 0.26 0.30 0.25 0.26 0.31 0.35 0.41 0.46 0.58 0.63 0.69 0.70 0.75 0.74 0.60 0.58 0.60 0.60 0.59 0.54 0.50 0.48 0.49 0.56 0.67 0.87 1.09 1.22 1.25 1.18 1.06 1.07 1.06 1.02 1.10 1.19 1.19 1.04 0.96
0.30 0.34 0.36 0.31 0.25 0.28 0.28 0.22 0.30 0.38 0.39 0.40 0.52 0.67 0.70 0.75 0.78 1.08 1.09 0.78 0.64 0.65 0.60 0.61 0.59 0.55 0.54 0.53 0.53 0.55 0.64 0.79 0.93 0.98 0.95 0.84 0.87 1.01 1.05 1.13 1.15 1.05 0.97 0.99
0.26 0.35 0.47 0.40 0.38 0.48 0.30 0.20 0.28 0.35 0.39 0.38 0.40 0.43 0.49 0.60 0.70 0.84 0.92 0.80 0.68 0.66 0.59 0.58 0.55 0.50 0.51 0.52 0.53 0.57 0.58 0.63 0.69 0.71 0.72 0.68 0.73 0.91 0.97 0.95 0.92 0.86 0.84 0.88
0.20 0.33 0.50 0.49 0.61 0.49 0.23 0.18 0.22 0.26 0.30 0.28 0.30 0.28 0.29 0.32 0.31 0.30 0.32 0.36 0.39 0.37 0.35 0.38 0.41 0.38 0.37 0.39 0.44 0.45 0.43 0.47 0.49 0.50 0.56 0.66 0.68 0.70 0.73 0.72 0.72 0.76 0.81 0.82
0.20 0.27 0.46 0.54 0.64 0.54 0.28 0.17 0.16 0.21 0.35 0.24 0.24 0.23 0.23 0.24 0.29 0.24 0.25 0.19 0.16 0.17 0.19 0.27 0.37 0.39 0.35 0.35 0.41 0.41 0.41 0.43 0.44 0.46 0.53 0.61 0.68 0.69 0.70 0.73 0.76 0.78 0.80 0.83
0.29 0.35 0.40 0.47 0.61 0.42 0.21 0.17 0.18 0.36 0.37 0.18 0.14 0.14 0.15 0.18 0.22 0.20 0.22 0.19 0.15 0.17 0.19 0.24 0.30 0.38 0.37 0.38 0.39 0.40 0.42 0.45 0.52 0.54 0.53 0.57 0.64 0.70 0.73 0.80 0.83 0.84 0.86 0.88
0.32 0.41 0.39 0.42 0.54 0.43 0.18 0.18 0.29 0.33 0.20 0.14 0.12 0.12 0.12 0.14 0.15 0.14 0.15 0.17 0.14 0.15 0.17 0.21 0.26 0.36 0.40 0.42 0.43 0.46 0.46 0.47 0.54 0.57 0.55 0.56 0.63 0.69 0.73 0.84 0.90 0.92 0.93 0.93
0.26 0.33 0.40 0.43 0.41 0.28 0.20 0.20 0.21 0.21 0.19 0.15 0.14 0.13 0.12 0.13 0.14 0.14 0.14 0.18 0.13 0.12 0.17 0.21 0.24 0.32 0.39 0.43 0.48 0.51 0.51 0.50 0.53 0.55 0.60 0.62 0.65 0.69 0.71 0.77 0.84 0.90 0.94 0.96
0.21 0.21 0.28 0.30 0.22 0.17 0.18 0.19 0.17 0.16 0.16 0.15 0.17 0.17 0.17 0.16 0.16 0.16 0.16 0.18 0.16 0.13 0.13 0.17 0.21 0.27 0.35 0.41 0.44 0.52 0.54 0.54 0.57 0.60 0.68 0.72 0.73 0.75 0.76 0.80 0.83 0.89 0.92 0.93
0.17 0.20 0.25 0.25 0.16 0.13 0.14 0.17 0.19 0.17 0.16 0.16 0.16 0.18 0.18 0.18 0.17 0.16 0.15 0.16 0.15 0.17 0.17 0.16 0.18 0.23 0.29 0.36 0.41 0.48 0.54 0.61 0.62 0.64 0.71 0.80 0.81 0.81 0.81 0.82 0.83 0.83 0.83 0.89
0.10 0.15 0.22 0.23 0.15 0.15 0.14 0.14 0.18 0.21 0.19 0.17 0.15 0.14 0.15 0.16 0.16 0.15 0.15 0.17 0.18 0.18 0.20 0.20 0.20 0.20 0.24 0.29 0.34 0.39 0.44 0.54 0.62 0.69 0.72 0.75 0.82 0.84 0.81 0.79 0.79 0.83 0.86 0.92